AO-07 1 07530U 74089B 19017.45537863 -.00000033 00000-0 76656-4 0 9993 2 07530 101.7218 346.8168 0011911 281.9459 194.0554 12.53636352 21449 UO-11 1 14781U 84021B 19017.15273224 .00000040 00000-0 11021-4 0 9993 2 14781 97.6269 48.9535 0009974 99.6463 260.5878 14.83057634876156 LO-19 1 20442U 90005G 19017.79447843 -.00000021 00000-0 86766-5 0 9992 2 20442 98.6334 320.1841 0010801 234.5245 125.4932 14.32915062514628 HUBBLE 1 20580U 90037B 19017.10520833 .00000362 00000-0 11113-4 0 9996 2 20580 28.4690 140.8583 0002512 285.5507 57.4290 15.09159102377813 MET-2/21 1 22782U 93055A 19017.20445501 .00000008 00000-0 -57155-5 0 9999 2 22782 82.5496 284.0767 0021105 245.4405 272.9343 13.83816231281775 AO-27 1 22825U 93061C 19017.88153191 -.00000002 00000-0 17068-4 0 9991 2 22825 98.8887 3.1714 0009464 82.0674 278.1581 14.30049269320257 IO-26 1 22826U 93061D 19017.91852173 -.00000005 00000-0 15858-4 0 9990 2 22826 98.8827 3.2197 0009945 72.1957 288.0309 14.30381932320452 FO-29 1 24278U 96046B 19017.88968332 -.00000036 00000-0 21959-5 0 9994 2 24278 98.5148 192.0554 0349343 273.8122 82.3149 13.53088587107279 NOAA-15 1 25338U 98030A 19017.56680696 .00000034 00000-0 33263-4 0 9993 2 25338 98.7585 39.0146 0009904 329.8095 30.2513 14.25891642 75576 GO-32 1 25397U 98043D 19017.88256143 -.00000026 00000-0 78356-5 0 9998 2 25397 98.6740 319.9944 0002303 103.5776 256.5659 14.23658702 66275 ISS 1 25544U 98067A 19018.08337883 .00000565 00000-0 15938-4 0 9995 2 25544 51.6423 27.8029 0002459 305.8343 159.7490 15.53767852151930 NO-44 1 26931U 01043C 19016.52741775 -.00000043 00000-0 15364-4 0 9995 2 26931 67.0514 38.9139 0005641 264.5039 95.5419 14.30529459903067 SO-50 1 27607U 02058C 19017.86466261 -.00000046 00000-0 14455-4 0 9998 2 27607 64.5546 153.7751 0081043 285.3363 73.8794 14.75512717864634 CO-55 1 27844U 03031E 19017.89742868 .00000047 00000-0 40639-4 0 9999 2 27844 98.6859 28.3679 0010815 108.7584 251.4768 14.22155297806718 CO-57 1 27848U 03031J 19017.28352567 .00000031 00000-0 34038-4 0 9998 2 27848 98.6940 28.2265 0010628 120.3508 239.8721 14.21753644806483 RS-22 1 27939U 03042A 19017.85350408 .00000141 00000-0 33853-4 0 9992 2 27939 98.0156 156.8522 0012877 182.7105 177.4027 14.66747842818283 NOAA-18 1 28654U 05018A 19017.61365504 .00000078 00000-0 67195-4 0 9994 2 28654 99.1192 62.1377 0013530 243.3875 116.5911 14.12398532704045 CO-58 1 28895U 05043F 19017.39952400 .00000079 00000-0 23864-4 0 9997 2 28895 97.9348 165.5713 0018065 111.5695 248.7435 14.63622022705216 Falconsat-3 1 30776U 07006E 19016.34252706 .00001678 00000-0 49072-4 0 9990 2 30776 35.4366 348.8443 0002694 182.0399 178.0317 15.35466529657099 CO-65 1 32785U 08021C 19016.86356863 .00000160 00000-0 22953-4 0 9990 2 32785 97.5465 23.8245 0014315 53.9849 306.2693 14.88236131580952 AAUSAT2 1 32788U 08021F 19017.88058525 .00000548 00000-0 55681-4 0 9994 2 32788 97.5064 40.2641 0011612 356.9137 3.2010 14.94574789582248 DO-64 1 32789U 08021G 19016.94346882 .00000885 00000-0 63793-4 0 9994 2 32789 097.4865 071.0759 0010778 289.2974 070.7087 15.06592021583863 CO-66 1 32791U 08021J 19017.74157768 .00000149 00000-0 20570-4 0 9998 2 32791 97.5297 30.4378 0014090 30.0660 330.1365 14.90715069581475 RS-30 1 32953U 08025A 19017.85173294 .00000021 00000-0 75656-4 0 9990 2 32953 82.5011 239.1703 0019627 99.5962 260.7332 12.43087310483446 PRISM 1 33493U 09002B 19017.82161429 -.00000008 00000-0 49543-5 0 9993 2 33493 98.1210 293.0232 0015174 329.8364 30.1997 14.96472924542445 NOAA-19 1 33591U 09005A 19017.58840608 .00000060 00000-0 57607-4 0 9997 2 33591 99.1668 5.1358 0014937 85.3125 274.9751 14.12329401512440 TISAT-1 1 36799U 10035E 19016.94403314 .00000395 00000-0 46023-4 0 9994 2 36799 098.1328 164.2533 0011503 222.5079 137.5248 14.90981217461809 JUGNU 1 37839U 11058B 19017.51070696 .00000304 00000-0 20139-4 0 9993 2 37839 19.9597 177.6117 0019003 89.2909 313.9357 14.12639638375719 SRMSAT 1 37841U 11058D 19017.00256899 .00000305 00000-0 22711-4 0 9990 2 37841 19.9707 234.3148 0011828 319.5890 159.0465 14.10622931375103 AO-71 1 37854U 11061E 19017.70886954 .00001492 00000-0 84101-4 0 9995 2 37854 101.7134 197.7384 0161928 157.0611 203.7940 15.06064894394119 HRBE 1 37855U 11061F 19017.71354015 .00001459 00000-0 81094-4 0 9996 2 37855 101.7258 195.1758 0174770 167.0990 193.4779 15.05057256393919 ALMASAT-1 1 38078U 12006B 19017.41237399 .00017220 39227-5 12655-3 0 9993 2 38078 69.4290 338.6738 0195600 139.7608 1.3317 15.52776945373774 HORYU-2 1 38340U 12025D 19017.08049597 .00000130 00000-0 27031-4 0 9999 2 38340 98.3481 50.9367 0010447 247.5867 112.4235 14.75655295358652 RS-40 1 38735U 12041C 19017.45057959 .00000017 00000-0 55103-4 0 9992 2 38735 82.4790 323.0153 0015993 204.8911 155.1398 12.42577120293644 BEESAT-3 1 39135U 13015F 19017.75183830 .00000888 00000-0 54393-4 0 9996 2 39135 64.8688 168.7393 0010474 264.4485 95.5446 15.17138888317193 BEESAT-2 1 39136U 13015G 19017.40291006 .00000856 00000-0 53544-4 0 9996 2 39136 64.8686 173.2366 0008010 285.1446 74.8793 15.16580974317071 ZACUBE-1 1 39417U 13066B 19017.76271382 .00000160 00000-0 26549-4 0 9991 2 39417 97.5712 39.7381 0059280 170.6993 189.5333 14.81041110278557 TRITON-1 1 39427U 13066M 19017.91251098 .00000120 00000-0 27486-4 0 9998 2 39427 97.6597 4.8271 0112619 291.8436 67.0822 14.67770408276076 GOMX-1 1 39430U 13066Q 19017.87508081 .00000200 00000-0 45128-4 0 9996 2 39430 97.7258 344.6157 0152018 13.5650 346.9575 14.59183699274463 LO-74 1 39440U 13066AA 19017.47087132 .00000135 00000-0 25970-4 0 9992 2 39440 97.5990 24.9358 0079452 218.7049 140.8452 14.75780898277524 AO-73 1 39444U 13066AE 19017.57625879 .00000198 00000-0 30701-4 0 9990 2 39444 97.5708 41.3477 0058542 165.8582 194.4288 14.81844824277407 SPROUT 1 39770U 14029E 19017.84793082 .00000304 00000-0 39914-4 0 9998 2 39770 97.8805 122.2340 0008163 218.5722 141.4910 14.87138854252260 DUCHIFAT-1 1 40021U 14033M 19017.76314231 .00000165 00000-0 22758-4 0 9993 2 40021 97.9211 301.9002 0012590 185.0718 175.0374 14.90499003248910 NANOSATCBR1 1 40024U 14033Q 19017.77796803 .00000240 00000-0 30985-4 0 9991 2 40024 97.9126 299.7032 0011838 187.7640 172.3396 14.89732793248820 EO-79 1 40025U 14033R 19017.81660381 .00000125 00000-0 19397-4 0 9994 2 40025 97.9066 297.7509 0011995 193.1117 166.9789 14.88850327248722 DTUSAT-2 1 40030U 14033W 19016.76317529 .00000165 00000-0 23769-4 0 9998 2 40030 97.8997 295.1003 0011449 191.5539 168.5417 14.88450284248505 EO-80 1 40032U 14033Y 19016.96434571 .00000167 00000-0 24072-4 0 9999 2 40032 97.9005 295.3023 0011420 191.5172 168.5785 14.88390008248521 ANTELSAT 1 40034U 14033AA 19017.65237430 .00000124 00000-0 25964-4 0 9997 2 40034 97.7816 251.0776 0057719 226.0944 133.5493 14.74031136246274 VELOX-1 1 40057U 14034E 19017.85442296 .00000209 00000-0 36864-4 0 9998 2 40057 98.2190 137.8595 0011012 7.2948 352.8421 14.77568824245345 DAURIA DX 1 1 40071U 14037C 19017.83467822 .00000054 00000-0 14371-4 0 9994 2 40071 98.4024 164.1815 0008462 2.0472 358.0776 14.81226082244776 UKUBE-1 1 40074U 14037F 19017.44945839 .00000142 00000-0 24204-4 0 9997 2 40074 98.4122 170.9508 0004691 358.2135 1.9080 14.83949648245072 HODOYOSHI-1 1 40299U 14070B 19017.83235832 .00000302 00000-0 15719-4 0 9990 2 40299 97.3627 100.6677 0011964 209.5182 219.6973 15.23175737233157 CHUBUSAT-1 1 40300U 14070C 19017.79729014 .00000411 00000-0 21052-4 0 9996 2 40300 97.3432 95.7141 0018711 228.5917 279.4237 15.21872394232919 QSAT-EOS 1 40301U 14070D 19017.87091302 .00001034 00000-0 43464-4 0 9991 2 40301 97.3419 98.0334 0025065 211.7597 240.3804 15.25426266233143 FIREBIRD FU3 1 40377U 15003B 19017.79246226 .00001178 00000-0 51338-4 0 9997 2 40377 99.0950 327.2104 0127892 236.1917 122.7082 15.18125521218871 FIREBIRD FU4 1 40378U 15003C 19017.84612607 .00001193 00000-0 51890-4 0 9994 2 40378 99.0952 327.3432 0128111 235.8934 123.0086 15.18131981218885 GRIFEX 1 40379U 15003D 19017.84456138 .00000947 00000-0 45256-4 0 9995 2 40379 99.0943 322.3296 0135558 251.9789 106.6628 15.14999092218597 NO-84 1 40654U 15025D 19017.35749161 .00004280 00000-0 70696-4 0 05101 2 40654 054.9905 146.2016 0143143 296.1533 062.4856 15.44128615088899 NO-83 1 40655U 15025E 19017.38562785 .00023179 00000-0 18192-3 0 06044 2 40655 054.9727 060.1142 0081941 349.7796 010.1593 15.67052042089758 DEORBITSAIL 1 40719U 15032E 19017.73655187 .00000281 00000-0 47449-4 0 9995 2 40719 97.9251 272.4977 0017734 76.6867 283.6319 14.76616133189835 NUDT-PHONESAT 1 40900U 15049B 19017.75157436 .00001421 00000-0 64917-4 0 9997 2 40900 97.4396 28.6305 0013421 5.9562 79.9458 15.22158193184546 XW-2A 1 40903U 15049E 19017.81851802 .00001106 00000-0 28605-4 0 9999 2 40903 97.3594 59.5882 0013401 342.7235 104.5385 15.41265179186852 XW-2C 1 40906U 15049H 19017.74652461 .00000485 00000-0 29072-4 0 9992 2 40906 97.4647 22.3960 0015494 12.9078 73.7147 15.15470888183985 XW-2D 1 40907U 15049J 19017.74221934 .00000609 00000-0 35438-4 0 9991 2 40907 97.4623 22.0718 0014895 10.9178 76.1548 15.15643797183995 LILACSAT-2 1 40908U 15049K 19016.30396313 -.00000064 00000-0 10685-6 0 9992 2 40908 97.4741 19.7315 0016779 18.3986 96.3907 15.13676497183607 XW-2E 1 40909U 15049L 19017.72759278 .00000790 00000-0 42763-4 0 9998 2 40909 97.4580 24.5174 0014113 8.2106 78.4736 15.17457547184146 XW-2F 1 40910U 15049M 19017.77615769 .00000577 00000-0 32587-4 0 9997 2 40910 97.4606 23.8103 0015318 4.5616 82.1164 15.16972143183985 XW-2B 1 40911U 15049N 19017.84031516 .00000228 00000-0 15485-4 0 9999 2 40911 97.4658 22.7772 0014885 11.2762 109.1063 15.15577301183904 DCBB 1 40912U 15049P 19017.77232230 .00000711 00000-0 36932-4 0 9995 2 40912 97.4513 27.1307 0015047 349.8016 95.9351 15.19244109184242 TW-1C 1 40926U 15051B 19017.69271449 .00006173 00000-0 10205-3 0 9991 2 40926 97.1591 64.2233 0007943 203.3997 251.2044 15.52560182186559 TW-1A 1 40928U 15051D 19017.79913558 .00001970 00000-0 51650-4 0 9998 2 40928 97.1641 52.4066 0009548 264.7936 182.5366 15.39828734185790 IO-86 1 40931U 15052B 19017.64634399 .00000656 00000-0 23050-5 0 9994 2 40931 5.9992 60.7900 0013173 162.8001 197.2626 14.76595195178751 LQSat 1 40958U 15057A 19017.81619708 -.00000029 00000-0 31803-5 0 9994 2 40958 97.9179 90.9734 0018596 13.0460 347.1211 14.73063528176445 AO-85 1 40967U 15058D 19017.33595034 -.00000018 00000-0 16618-4 0 05706 2 40967 064.7770 261.0397 0212464 249.4762 108.3420 14.75856858085255 ATHENOXAT-1 1 41168U 15077C 19016.37211156 .00001669 00000-0 53615-4 0 9999 2 41168 14.9771 259.4177 0011597 121.8660 36.5624 15.13267337170713 ChubuSat-2 1 41338U 16012B 19016.45143985 .00000258 00000-0 13363-4 0 9990 2 41338 31.0042 38.5785 0013823 25.3093 334.8217 15.00082178159887 ChubuSat-3 1 41339U 16012C 19017.63669267 .00000250 00000-0 12761-4 0 9991 2 41339 31.0116 29.3437 0013684 43.8607 316.3127 15.00262862160059 Horyu-4 1 41340U 16012D 19017.17451769 .00000373 00000-0 21711-4 0 9999 2 41340 31.0062 25.1159 0014021 55.9602 304.2363 15.01150983160072 OUFTI-1 1 41458U 16025C 19017.79026657 .00000569 00000-0 33308-4 0 9997 2 41458 98.1138 96.9172 0169000 147.1096 214.0756 15.05324935149727 e-st@r-II 1 41459U 16025D 19017.90555338 .00000940 00000-0 52506-4 0 9998 2 41459 98.1119 96.7805 0169444 147.9389 213.2284 15.04999498149710 AAUSAT4 1 41460U 16025E 19017.79475658 .00001166 00000-0 62844-4 0 9990 2 41460 98.1089 97.5575 0160611 142.3865 218.8682 15.06697036149792 LO-87 1 41557U 16033B 19017.88399744 .00000856 00000-0 35220-4 0 9990 2 41557 97.4265 106.2735 0015554 112.1912 248.0979 15.26806080146925 NuSat2 1 41558U 16033C 19017.77966677 .00000939 00000-0 36273-4 0 9995 2 41558 97.4286 106.7311 0014578 114.5872 245.6889 15.28696519146929 Lapan A3 1 41603U 16040E 19017.81468197 .00000119 00000-0 87314-5 0 9996 2 41603 97.3831 80.0833 0012637 203.9581 291.1474 15.19656206142675 Swayam 1 41607U 16040J 19017.83457547 .00001000 00000-0 45644-4 0 9998 2 41607 97.3873 82.5828 0013103 198.5544 161.5217 15.22843285142767 Pratham 1 41783U 16059A 19017.83230602 .00000050 00000-0 18989-4 0 9990 2 41783 98.0904 80.5965 0034507 139.9240 220.4518 14.62967564123340 AlSat 1N 1 41789U 16059G 19017.81341068 .00000041 00000-0 16908-4 0 9992 2 41789 98.0920 82.2475 0029411 130.3053 230.0710 14.64209799123425 ScatSat 1 41790U 16059H 19017.72363363 .00000004 00000-0 12095-4 0 9998 2 41790 98.2321 66.2852 0018830 149.8153 210.4131 14.50887046122299 TY-1 1 41844U 16066D 19017.84543031 .00001018 00000-0 45025-4 0 9996 2 41844 97.4065 27.0452 0015955 9.1915 112.4627 15.23869328121569 Pegasus-1 1 41846U 16066F 19016.88921999 .00000185 00000-0 39279-4 0 9992 2 41846 098.7324 054.4944 0367247 332.6229 025.6017 14.37477678114601 CAS-2T 1 41847U 16066G 19016.94502024 .00000009 00000-0 12603-4 0 9991 2 41847 098.7275 055.0634 0365444 329.3976 028.6335 14.37951735115045 EO-88 1 42017U 17008BX 19017.43191687 .00001073 00000-0 45800-4 0 9999 2 42017 97.4235 85.9822 0006036 1.6019 358.5237 15.25065461106715 HAVELSAT 1 42700U 98067LH 19017.29013025 .00147883 19618-4 39045-3 0 9997 2 42700 51.6241 325.8820 0003189 84.7780 275.3591 15.94438094 95864 SOMP2 1 42701U 98067LJ 19017.29833954 .00081853 00000-0 27293-3 0 9996 2 42701 51.6319 330.6032 0002373 64.7040 295.4212 15.89513550 95791 PHOENIX 1 42706U 98067LP 19017.70240092 .00040187 00000-0 19856-3 0 9993 2 42706 51.6285 334.1033 0000831 83.1330 276.9767 15.81654590 95704 X-CubeSat 1 42707U 98067LQ 19017.66898655 .00281784 46222-4 43875-3 0 9991 2 42707 51.6210 319.9914 0004008 136.1771 223.9559 16.03559887 95877 qbee 1 42708U 98067LR 19017.32295941 .00158395 20824-4 42155-3 0 9995 2 42708 51.6242 326.8788 0003080 111.1490 248.9846 15.94261010 95715 ZA-AeroSat 1 42713U 98067LU 19017.49042009 .00042660 00000-0 22716-3 0 9992 2 42713 51.6350 340.2505 0000566 24.4882 335.6146 15.79993759 95267 SpaceCube 1 42717U 98067LY 19017.31223340 .00149528 19714-4 40960-3 0 9994 2 42717 51.6196 327.4466 0003308 92.1666 267.9720 15.93741267 94783 NJUST-1 1 42722U 98067MB 19017.76779888 .00029124 00000-0 17600-3 0 9990 2 42722 51.6406 342.7702 0002722 1.0554 67.8674 15.77366087 94320 LO-90 1 42725U 98067ME 19017.77898558 .00071824 00000-0 26784-3 0 9997 2 42725 51.6354 332.1909 0002877 52.5342 27.2445 15.87312402 94378 nSIGHT1 1 42726U 98067MF 19017.42628061 .00009367 00000-0 95964-4 0 9990 2 42726 51.6388 4.1297 0004432 327.1298 32.9421 15.65766353 93923 SNUSAT 1B 1 42727U 98067MG 19017.73479988 .00074682 00000-0 28616-3 0 9998 2 42727 51.6300 332.7169 0001192 356.9837 3.1160 15.86747134 94329 QBITO 1 42728U 98067MH 19017.32848926 .00206248 28226-4 46471-3 0 9994 2 42728 51.6284 326.2887 0003288 104.7171 255.4202 15.97231595 94212 Aalto-2 1 42729U 98067MJ 19017.29101152 .00291731 47700-4 50975-3 0 9997 2 42729 51.6219 324.3148 0003599 126.5259 233.6083 16.01612918 94240 SUSat 1 42730U 98067MK 19017.32812771 .00099998 00000-0 34909-3 0 9997 2 42730 51.6313 332.2974 0002341 74.2615 285.8648 15.88521765 94138 PolyITAN-2-SAU 1 42732U 98067MM 19017.28471487 .00301475 50829-4 49539-3 0 9998 2 42732 51.6251 323.5255 0002914 140.3914 219.7310 16.02653770 94297 Aoxiang-1 1 42735U 98067MQ 19017.91492579 .00032810 00000-0 18901-3 0 9991 2 42735 51.6332 340.6152 0003374 3.0529 94.3175 15.78373553 95493 BeEagleSat 1 42736U 98067MR 19017.26636615 .00056547 00000-0 25559-3 0 9991 2 42736 51.6305 337.9153 0002986 5.8902 354.2135 15.83409502 94164 CAS-4B 1 42759U 17034B 19017.80851610 .00000039 00000-0 15983-4 0 9991 2 42759 43.0199 344.8843 0011010 8.2305 68.5454 15.09465221 87888 CAS-4A 1 42761U 17034D 19017.77826315 .00000018 00000-0 14652-4 0 9993 2 42761 43.0195 344.6818 0011400 9.3453 61.3599 15.09541611 87874 UCLSat 1 42765U 17036A 19017.85187968 .00000825 00000-0 38716-4 0 9995 2 42765 97.3738 78.9573 0012807 49.4267 310.8082 15.22362740 87360 NIUSat 1 42766U 17036B 19017.72566949 .00000603 00000-0 30372-4 0 9996 2 42766 97.3737 77.6237 0016726 38.2756 321.9663 15.20804005 87132 LituanicaSAT 2 1 42768U 17036D 19017.16623883 .00001279 00000-0 58579-4 0 9996 2 42768 97.3766 77.8392 0016289 41.2664 318.9800 15.22181925 87103 Aalto 1 1 42775U 17036L 19016.72516362 .00000538 00000-0 27221-4 0 9995 2 42775 97.3730 76.9349 0015160 42.1860 318.0539 15.21080547 86958 URSA MAIOR 1 42776U 17036M 19016.89559451 .00000541 00000-0 27285-4 0 9994 2 42776 097.3736 077.2036 0014942 041.7804 318.4570 15.21195543086987 Max Valier Sat 1 42778U 17036P 19017.70915311 .00000567 00000-0 28023-4 0 9997 2 42778 97.3768 78.5670 0013487 44.0875 316.1434 15.21719119 87121 Pegasus 1 42784U 17036V 19017.78659055 .00000737 00000-0 35119-4 0 9995 2 42784 97.3742 78.7616 0013357 49.6008 310.6392 15.22138598 87159 NUDATSat 1 42787U 17036Y 19017.87153079 .00001425 00000-0 63583-4 0 9994 2 42787 97.3774 79.2955 0013549 42.2553 317.9726 15.22935660 87039 SUCHAI 1 1 42788U 17036Z 19017.10873138 .00000860 00000-0 40083-4 0 9998 2 42788 97.3746 78.3005 0012962 51.5474 308.6923 15.22487428 87139 SKCUBE 1 42789U 17036AA 19016.91875394 .00000796 00000-0 37374-4 0 9990 2 42789 097.3743 078.0838 0012853 052.2902 307.9497 15.22414696087024 VZLUSAT 1 1 42790U 17036AB 19016.93898272 .00001062 00000-0 48154-4 0 9999 2 42790 097.3754 078.3831 0012418 052.0390 308.1967 15.22937363087048 VENTA 1 1 42791U 17036AC 19016.89505960 .00000773 00000-0 36360-4 0 9998 2 42791 097.3742 078.1097 0012516 053.0187 307.2194 15.22441394087015 Robusta 1B 1 42792U 17036AD 19017.19450186 .00000812 00000-0 37899-4 0 9994 2 42792 97.3743 78.4641 0012420 52.3212 307.9149 15.22574373 87088 D-SAT 1 42794U 17036AF 19017.80664484 .00000270 00000-0 29203-4 0 9990 2 42794 97.5631 69.0042 0125305 287.9734 70.7860 14.91004058 85706 BIRD-J 1 42820U 98067MU 19017.29957482 .00058452 00000-0 28366-3 0 9992 2 42820 51.6318 341.9339 0000668 64.9719 295.1352 15.81879596 87573 BIRD-G 1 42821U 98067MV 19017.86531489 .00042061 00000-0 22363-3 0 9991 2 42821 51.6277 341.2050 0000366 73.6823 286.4218 15.80032966 87619 BIRD-M 1 42822U 98067MW 19017.33535192 .00051781 00000-0 26241-3 0 9997 2 42822 51.6334 342.9535 0000639 21.1300 338.9728 15.80991665 87542 BIRD-B 1 42823U 98067MX 19017.87050782 .00047504 00000-0 23553-3 0 9995 2 42823 51.6304 339.7763 0001378 315.3167 44.7724 15.81502682 87633 BIRD-N 1 42824U 98067MY 19017.31288490 .00054143 00000-0 27683-3 0 9999 2 42824 51.6344 343.6126 0001867 330.7162 29.3735 15.80778515 87522 TechnoSat 1 42829U 17042E 19017.73442747 .00000177 00000-0 23313-4 0 9996 2 42829 97.5806 276.7715 0013604 200.5240 159.5433 14.90912772 82297 TOMSK-TPU 120 1 42910U 98067MZ 19017.80303543 .00019142 00000-0 14507-3 0 9997 2 42910 51.6362 353.4984 0003479 323.4710 105.8018 15.72400557 81053 TANYUSHA 1 1 42911U 98067NA 19017.79217953 .00028098 00000-0 18382-3 0 9990 2 42911 51.6338 349.6894 0002870 326.4397 102.7497 15.75576664 81088 TANYUSHA 2 1 42912U 98067NB 19017.79240323 .00024035 00000-0 16847-3 0 9999 2 42912 51.6403 352.0089 0002642 339.7912 88.9085 15.74076186 81073 TNS 0-2 1 42914U 98067ND 19017.85657623 .00022187 00000-0 16735-3 0 9995 2 42914 51.6338 354.0815 0003056 323.5391 36.5399 15.72402699 81047 QIKCOM-1 1 42983U 98067NF 19017.58572314 .00002358 00000-0 37840-4 0 9993 2 42983 51.6400 23.2212 0003431 280.3349 79.7257 15.57702253 69623 AO-91 1 43017U 17073E 19017.79223606 .00000457 00000-0 41917-4 0 9998 2 43017 97.7203 305.1289 0257597 293.1552 64.2709 14.78362460 62811 EcAMSat 1 43019U 98067NG 19017.87914454 .00004409 00000-0 61171-4 0 9994 2 43019 51.6412 19.2074 0004016 255.9210 104.1337 15.59351308152025 PICSAT 1 43132U 18004X 19016.91695469 .00000760 00000-0 35156-4 0 9999 2 43132 097.5088 084.9150 0011386 073.7707 286.4782 15.23165745056242 AO-92 1 43137U 18004AC 19017.16489496 .00000626 00000-0 29535-4 0 9998 2 43137 97.5081 85.1784 0010962 74.6881 285.5566 15.23141520 56276 TianYi 2 1 43155U 18008A 19017.83803209 .00000352 00000-0 24883-4 0 9995 2 43155 97.5039 93.4651 0019094 124.3089 12.4518 15.10889783 54898 Zhou Enlai 1 43156U 18008B 19017.83474095 .00000548 00000-0 37135-4 0 9994 2 43156 97.5084 93.3819 0016356 121.3748 16.3999 15.10380102 54876 TianYi 6 1 43158U 18008D 19017.77173017 .00000098 00000-0 98861-5 0 9993 2 43158 97.5029 92.9684 0014987 118.9906 0.8574 15.10022957 54832 S-Net G 1 43186U 18014G 19017.78773264 -.00000391 00000-0 -29252-4 0 9997 2 43186 97.7181 288.3751 0011580 147.3147 212.8794 14.96568597 52418 S-Net H 1 43187U 18014H 19017.78755869 -.00000391 00000-0 -29227-4 0 9991 2 43187 97.7178 288.3670 0011584 147.2845 212.9096 14.96568528 52413 S-Net J 1 43188U 18014J 19017.78736817 -.00000375 00000-0 -27877-4 0 9995 2 43188 97.7181 288.3784 0011586 147.3863 212.8076 14.96569614 52411 S-Net K 1 43189U 18014K 19017.78764040 -.00000394 00000-0 -29533-4 0 9997 2 43189 97.7178 288.3653 0011579 147.2259 212.9683 14.96568172 50964 FMN 1 1 43192U 18015A 19017.91882162 .00001370 00000-0 59873-4 0 9996 2 43192 97.3794 147.8779 0018088 105.8246 254.4983 15.23642430 53209 Shaonian Xing 1 43199U 18015H 19017.46359156 .00001018 00000-0 44380-4 0 9991 2 43199 97.3572 146.8564 0018746 118.4993 241.8136 15.24309208 53171 1KUNS-PF 1 43466U 98067NP 19017.46510984 .00013034 00000-0 15906-3 0 9993 2 43466 51.6395 23.9188 0000520 69.1432 290.9618 15.60826549 39101 UBAKUSAT 1 43467U 98067NQ 19017.49919663 .00008834 00000-0 11621-3 0 9996 2 43467 51.6392 24.8934 0001884 199.0639 161.0283 15.59323517 39105 Irazu 1 43468U 98067NR 19017.19103146 .00014046 00000-0 16364-3 0 9996 2 43468 51.6392 24.3358 0000746 63.5145 296.5925 15.61966444139062 EnduroSat One 1 43551U 98067NZ 19017.48615687 .00011262 00000-0 15020-3 0 9994 2 43551 51.6399 27.0454 0005566 301.5944 58.4505 15.58623102 29307 EQUISat 1 43552U 98067PA 19017.32038971 .00009124 00000-0 12530-3 0 9990 2 43552 51.6404 28.1911 0005869 299.4629 60.5777 15.58113119 29235 UiTMSat 1 1 43589U 98067PD 19016.48013116 .00007942 00000-0 11112-3 0 9991 2 43589 51.6387 33.0714 0005313 306.3934 53.6567 15.57823228 24831 Maya 1 1 43590U 98067PE 19017.43961374 .00010407 00000-0 14327-3 0 9998 2 43590 51.6392 28.2311 0005486 312.5054 47.5474 15.57867701 24913 Bhutan 1 1 43591U 98067PF 19017.05052603 .00008648 00000-0 12003-3 0 9996 2 43591 51.6398 30.1334 0005576 310.8012 49.2496 15.57904980 24859 SiriusSat 1 1 43595U 98067PG 19017.22785343 .00008654 00000-0 12255-3 0 9999 2 43595 51.6390 29.8119 0002792 257.3554 102.7126 15.57363593 24050 SiriusSat 2 1 43596U 98067PH 19016.85752219 .00008358 00000-0 11930-3 0 9994 2 43596 051.6405 031.8539 0003417 259.4801 100.5806 15.57202339023993 Tanusha-3 1 43597U 98067PJ 19017.21337069 .00010750 00000-0 14802-3 0 9998 2 43597 51.6380 29.6982 0002906 279.2910 80.7753 15.57826450 24050 SurfSat 1 43614U 18070B 19017.26355582 .00001940 00000-0 53960-4 0 9999 2 43614 93.0392 300.6656 0016915 164.2428 195.9354 15.36810591 18993 CP-7 DAVE 1 43615U 18070C 19017.06855123 .00001628 00000-0 45338-4 0 9997 2 43615 93.0393 300.5856 0016954 164.8360 195.3405 15.36781155 18961 ELFIN-B 1 43616U 18070D 19017.31646984 .00002740 00000-0 75445-4 0 9997 2 43616 93.0354 300.6401 0017842 167.6024 192.5671 15.37069755 19007 ELFIN-A 1 43617U 18070E 19017.31377846 .00002772 00000-0 76286-4 0 9995 2 43617 93.0409 300.7352 0017095 163.6583 196.5225 15.37105738 19002 STARS-Me Mother 1 43640U 98067PQ 19017.20438178 .00005620 00000-0 86231-4 0 9995 2 43640 51.6400 31.1608 0004942 245.9486 114.0988 15.55959439 15968 CubeBel 1 1 43666U 18083E 19017.81723042 .00000558 00000-0 31404-4 0 9994 2 43666 97.5336 43.2488 0015524 2.3174 83.3197 15.17245737 12256 Changshagaoxin 1 43669U 18083H 19017.83986460 .00000694 00000-0 39041-4 0 9990 2 43669 97.5191 43.0329 0010809 356.1241 3.9906 15.16518979 12218 Ten-Koh 1 43677U 18084G 19017.32848850 .00000109 00000-0 17049-4 0 9999 2 43677 97.8374 132.2064 0017425 67.9491 292.3634 14.90114646 11928 Diwata-2 1 43678U 18084H 19017.85668969 -.00000348 00000-0 -29010-4 0 9997 2 43678 97.8382 132.9144 0011505 85.2261 275.0273 14.91516229 12017 IRVINE 01 1 43693U 18088D 19017.31393640 .00001836 00000-0 81353-4 0 9999 2 43693 85.0343 58.6896 0020105 38.9644 321.3042 15.20693935 10205 Reaktor Hello World 1 43743U 18096AA 19017.81963455 .00000774 00000-0 32645-4 0 9996 2 43743 97.4798 87.8680 0019257 146.8104 350.9886 15.26230244 7568 MinXSS-2 1 43758U 18099A 19017.18576533 -.00000078 00000-0 -17681-5 0 9995 2 43758 97.7632 90.9194 0016988 114.8802 245.4187 14.95284178 6647 OBJECT B 1 43759U 18099B 19017.79462946 .00000051 00000-0 99374-5 0 9993 2 43759 97.7633 91.5122 0015729 106.3426 253.9525 14.95056204 6723 OBJECT C 1 43760U 18099C 19017.86266635 .00000437 00000-0 45153-4 0 9993 2 43760 97.7625 91.5671 0015385 111.9317 248.3540 14.95037227 6745 OBJECT D 1 43761U 18099D 19017.19505424 .00000036 00000-0 85559-5 0 9992 2 43761 97.7658 90.9255 0015848 113.8991 246.3891 14.94960478 6633 OBJECT F 1 43763U 18099F 19017.84890228 -.00000182 00000-0 -11143-4 0 9996 2 43763 97.7625 91.5856 0014624 110.4509 249.8231 14.95479640 6747 OBJECT J 1 43766U 18099J 19017.88036799 .00000567 00000-0 57907-4 0 9991 2 43766 97.7622 91.5444 0012951 109.1366 251.1257 14.94437105 6740 AO-95 1 43770U 18099N 19017.20421966 .00000464 00000-0 48013-4 0 9990 2 43770 97.7636 90.8967 0016025 120.1750 240.1061 14.94658451 6647 OBJECT P 1 43771U 18099P 19016.66843854 .00000422 00000-0 44187-4 0 9996 2 43771 97.7636 90.3669 0016042 121.9449 238.3334 14.94666228 6558 OBJECT Q 1 43772U 18099Q 19017.13534229 .00000499 00000-0 51194-4 0 9993 2 43772 97.7684 90.8608 0015694 109.0130 251.2792 14.94728068 6627 OBJECT R 1 43773U 18099R 19017.40301352 .00000382 00000-0 40423-4 0 9997 2 43773 97.7585 91.0729 0015079 108.0375 252.2490 14.94723661 6666 OBJECT S 1 43774U 18099S 19017.20027667 .00000436 00000-0 45314-4 0 9994 2 43774 97.7663 90.9128 0014347 112.0100 248.2646 14.94796005 6630 OBJECT T 1 43775U 18099T 19017.19827569 .00000189 00000-0 22590-4 0 9998 2 43775 97.7644 90.9151 0016127 112.4511 247.8420 14.94853949 6629 OBJECT U 1 43776U 18099U 19017.73371894 .00000222 00000-0 25670-4 0 9994 2 43776 97.7643 91.4450 0016146 110.6254 249.6700 14.94854076 6704 OBJECT V 1 43777U 18099V 19017.40794140 .00000593 00000-0 60223-4 0 9996 2 43777 97.7592 91.0720 0017198 114.0540 246.2482 14.94409537 6661 OBJECT W 1 43778U 18099W 19017.73675268 .00000446 00000-0 46270-4 0 9995 2 43778 97.7543 91.3779 0015527 115.4842 244.7986 14.94759674 6290 OBJECT X 1 43779U 18099X 19017.19824111 .00000164 00000-0 20373-4 0 9992 2 43779 97.7644 90.9150 0016118 112.3101 247.9830 14.94853944 6627 MOVE-II 1 43780U 18099Y 19017.19766039 .00000439 00000-0 45511-4 0 9994 2 43780 97.7618 90.8929 0015018 119.0183 241.2544 14.94887440 6622 SNUSat 2 1 43782U 18099AA 19017.19549219 .00000165 00000-0 20406-4 0 9997 2 43782 97.7632 90.9064 0014227 108.7015 251.5751 14.94951650 6631 OBJECT AC 1 43784U 18099AC 19017.19327629 .00000090 00000-0 13501-4 0 9993 2 43784 97.7596 90.8869 0016528 116.4035 243.8885 14.95025906 6648 ITASat 1 1 43786U 18099AE 19017.79506998 .00000134 00000-0 17508-4 0 9999 2 43786 97.7649 91.5181 0016633 113.4844 246.8127 14.95044758 6734 OBJECT AH 1 43789U 18099AH 19017.18166572 -.00000178 00000-0 -10779-4 0 9998 2 43789 97.7628 90.9190 0017219 114.2315 246.0707 14.95423410 6338 EAGLET 1 1 43790U 18099AJ 19017.78338801 -.00000299 00000-0 -21748-4 0 9994 2 43790 97.7640 91.5273 0014731 117.8187 242.4529 14.95431494 6428 ESEO 1 43792U 18099AL 19017.18019704 -.00000409 00000-0 -31708-4 0 9998 2 43792 97.7625 90.9243 0014585 116.8124 243.4591 14.95460443 6392 CSIM 1 43793U 18099AM 19017.78118265 -.00000048 00000-0 87618-6 0 9998 2 43793 97.7572 91.4809 0014432 114.2936 245.9794 14.95520214 6454 OBJECT AQ 1 43796U 18099AQ 19017.17498311 -.00000206 00000-0 -13272-4 0 9997 2 43796 97.7623 90.9263 0016563 102.5905 257.7169 14.95648008 6634 Astrocast 0.1 1 43798U 18099AS 19017.17417229 -.00000302 00000-0 -21876-4 0 9994 2 43798 97.7630 90.9314 0013902 101.6797 258.5984 14.95670976 6626 OBJECT AV 1 43801U 18099AV 19017.79210401 .00000021 00000-0 72287-5 0 9999 2 43801 97.7589 91.4808 0015693 107.3448 252.9490 14.95144195 6723 JO-97 1 43803U 18099AX 19017.85885428 .00000107 00000-0 14975-4 0 9999 2 43803 97.7605 91.5592 0016586 114.1642 246.1314 14.95153230 6730 Suomi 100 1 43804U 18099AY 19017.79171697 .00000056 00000-0 10334-4 0 9997 2 43804 97.7605 91.4926 0016657 114.4787 245.8172 14.95158852 6736 Al Farabi 2 1 43805U 18099AZ 19017.79117708 .00000143 00000-0 18297-4 0 9994 2 43805 97.7605 91.4934 0016697 114.7298 245.5663 14.95182572 6738 OBJECT BA 1 43806U 18099BA 19017.85790108 -.00000006 00000-0 47564-5 0 9992 2 43806 97.7606 91.5573 0016360 112.4757 247.8198 14.95180255 6433 OBJECT BD 1 43809U 18099BD 19017.78701037 -.00000135 00000-0 -69808-5 0 9999 2 43809 97.7623 91.5108 0016595 115.5366 244.7573 14.95313038 6428 OBJECT BE 1 43810U 18099BE 19017.78690434 -.00000166 00000-0 -97729-5 0 9996 2 43810 97.7534 91.4616 0015859 110.6030 249.6893 14.95313372 6273 OBJECT BH 1 43813U 18099BH 19017.91933295 .00000017 00000-0 68419-5 0 9996 2 43813 97.7696 91.6873 0015287 104.4376 255.8542 14.95369909 6436 PWSat 2 1 43814U 18099BJ 19017.66342566 .00010032 00000-0 91353-3 0 9993 2 43814 97.7616 91.3664 0010721 135.3634 224.8450 14.95318926 6103 OBJECT BM 1 43817U 18099BM 19017.78775602 .00000460 00000-0 46967-4 0 9996 2 43817 97.7639 91.5118 0014700 105.1463 255.1385 14.95318220 6272 OBJECT BQ 1 43820U 18099BQ 19017.78730114 -.00000139 00000-0 -73452-5 0 9994 2 43820 97.7580 91.4892 0014039 106.1224 254.1544 14.95301316 6128 CHOMPTT 1 43855U 18104G 19016.92453667 .00000042 00000-0 00000 0 0 9993 2 43855 85.0372 157.4044 0018696 150.4555 209.7760 15.22088429 4783 Lume 1 1 43908U 18111AJ 19017.81569033 .00000635 00000-0 28972-4 0 9995 2 43908 97.2998 287.1393 0022211 163.0157 197.1829 15.23994088 3317 /EX
